GW2863 Weather Reports


time (UTC)temp
C
wind
direction
speed
KPH
gust
KPH
rain 1hr
cm
rain 24hr
cm
rain mn
cm
humidity
%
barometer
mb
20260502150432 15 100 0.0 0.0 0.00 0.00 0.00 40 1020.9
20260502130318 8 78 0.0 0.0 0.00 0.00 0.00 44 1020.3
20260502123803 8 124 0.0 0.0 0.00 0.00 0.00 43 1020.1
20260502123300 8 161 0.0 0.0 0.00 0.00 0.00 42 1020.2
20260502122757 8 137 0.0 0.0 0.00 0.00 0.00 41 1020.1
20260502122253 8 128 0.0 0.0 0.00 0.00 0.00 41 1020.1
20260502121751 8 267 0.0 0.0 0.00 0.00 0.00 41 1020.2
20260502121249 8 250 0.0 0.0 0.00 0.00 0.00 41 1020.2
20260502120745 9 232 0.0 0.0 0.00 0.00 0.00 41 1020.0
20260502120242 8 157 0.0 0.0 0.00 0.00 0.00 41 1020.0
20260502115740 9 94 0.0 0.0 0.00 0.00 0.00 41 1020.1
20260502115237 9 210 0.0 0.0 0.00 0.00 0.00 39 1020.0
20260502114732 8 213 0.0 0.0 0.00 0.00 0.00 40 1020.0
20260502114230 8 227 0.0 0.0 0.00 0.00 0.00 40 1020.1
20260502113727 8 226 0.0 0.0 0.00 0.00 0.00 42 1020.2
20260502113225 8 231 0.0 0.0 0.00 0.00 0.00 42 1019.8
20260502112723 8 243 0.0 0.0 0.00 0.00 0.00 41 1020.1
20260502112220 8 222 0.0 0.0 0.00 0.00 0.00 41 1020.0
20260502111717 8 134 0.0 0.0 0.00 0.00 0.00 41 1020.1
20260502111214 9 213 0.0 0.0 0.00 0.00 0.00 40 1020.3
20260502110712 9 219 0.0 0.0 0.00 0.00 0.00 40 1020.1
20260502110209 7 212 0.0 0.0 0.00 0.00 0.00 43 1020.1
20260502105707 7 265 0.0 0.0 0.00 0.00 0.00 46 1020.3
20260502105203 7 92 0.0 0.0 0.00 0.00 0.00 44 1020.0
20260502104701 7 29 0.0 0.0 0.00 0.00 0.00 47 1020.0
20260502104158 7 29 0.0 0.0 0.00 0.00 0.00 46 1020.1
20260502103656 7 294 0.0 0.0 0.00 0.00 0.00 44 1020.1
20260502103153 7 238 0.0 0.0 0.00 0.00 0.00 44 1020.0
20260502102650 8 27 0.0 0.0 0.00 0.00 0.00 45 1020.2
20260502102147 8 358 0.0 0.0 0.00 0.00 0.00 44 1020.1
20260502101645 8 83 0.0 0.0 0.00 0.00 0.00 43 1020.1
20260502101143 8 77 0.0 0.0 0.00 0.00 0.00 42 1019.7
20260502100641 9 81 0.0 0.0 0.00 0.00 0.00 41 1019.7
20260502100139 10 252 0.0 3.2 0.00 0.00 0.00 40 1019.7
20260502091113 8 234 0.0 0.0 0.00 0.00 0.00 43 1019.7
20260502090610 9 248 0.0 1.6 0.00 0.00 0.00 43 1019.7
20260502090107 8 227 0.0 1.6 0.00 0.00 0.00 43 1019.7
20260502071504 8 252 0.0 0.0 0.00 0.00 0.00 47 1020.1
20260502071003 8 225 0.0 0.0 0.00 0.00 0.00 48 1020.3
20260502070500 8 228 0.0 0.0 0.00 0.00 0.00 48 1020.3
20260502065958 8 226 0.0 0.0 0.00 0.00 0.00 47 1020.2
20260502065457 8 223 0.0 0.0 0.00 0.00 0.00 47 1020.1
20260502064954 8 227 0.0 0.0 0.00 0.00 0.00 47 1020.1
20260502064452 8 322 0.0 0.0 0.00 0.00 0.00 47 1020.0
20260502063949 8 167 0.0 0.0 0.00 0.00 0.00 47 1019.8
20260502063447 9 164 0.0 0.0 0.00 0.00 0.00 45 1020.1
20260502062944 9 229 0.0 0.0 0.00 0.00 0.00 45 1020.0
20260502062441 8 250 0.0 0.0 0.00 0.00 0.00 46 1019.8
20260502061940 9 227 0.0 0.0 0.00 0.00 0.00 45 1020.0
20260502061437 9 257 0.0 0.0 0.00 0.00 0.00 44 1019.7
20260502060933 9 221 0.0 1.6 0.00 0.00 0.00 44 1019.7
20260502060428 8 234 0.0 0.0 0.00 0.00 0.00 46 1019.8
20260502055926 8 233 0.0 0.0 0.00 0.00 0.00 47 1019.7
20260502055423 8 232 0.0 0.0 0.00 0.00 0.00 48 1019.8
20260502054918 8 224 0.0 0.0 0.00 0.00 0.00 46 1020.0
20260502054415 9 259 0.0 0.0 0.00 0.00 0.00 45 1019.5
20260502053912 9 223 0.0 0.0 0.00 0.00 0.00 45 1019.7
20260502053409 9 217 0.0 0.0 0.00 0.00 0.00 45 1019.6
20260502052907 8 218 0.0 0.0 0.00 0.00 0.00 47 1019.6
20260502052405 8 227 0.0 0.0 0.00 0.00 0.00 47 1019.5
20260502051902 8 245 0.0 0.0 0.00 0.00 0.00 47 1019.6
20260502051401 9 240 0.0 0.0 0.00 0.00 0.00 47 1019.8
20260502050857 9 240 0.0 0.0 0.00 0.00 0.00 46 1019.6
20260502050353 9 236 0.0 0.0 0.00 0.00 0.00 46 1019.6
20260502045850 9 230 0.0 0.0 0.00 0.00 0.00 45 1019.6
20260502045347 9 233 0.0 0.0 0.00 0.00 0.00 46 1019.7
20260502044844 10 233 0.0 0.0 0.00 0.00 0.00 46 1019.5
20260502044340 10 215 0.0 0.0 0.00 0.00 0.00 45 1019.7
20260502043837 10 224 0.0 0.0 0.00 0.00 0.00 45 1019.5
20260502043335 10 247 0.0 0.0 0.00 0.00 0.00 45 1019.6
20260502042834 10 249 0.0 0.0 0.00 0.00 0.00 45 1019.7
20260502042332 10 241 0.0 0.0 0.00 0.00 0.00 47 1019.5
20260502041829 10 236 0.0 0.0 0.00 0.00 0.00 46 1019.6
20260502041326 10 237 0.0 0.0 0.00 0.00 0.00 44 1019.5
20260502040824 10 237 0.0 0.0 0.00 0.00 0.00 42 1019.3
20260502040321 10 254 0.0 0.0 0.00 0.00 0.00 42 1019.5
20260502035816 10 258 0.0 0.0 0.00 0.00 0.00 41 1019.1
20260502035313 11 268 0.0 0.0 0.00 0.00 0.00 41 1019.4
20260502034811 11 244 0.0 0.0 0.00 0.00 0.00 41 1019.1
20260502034309 11 260 0.0 0.0 0.00 0.00 0.00 41 1019.3
20260502033807 11 207 0.0 0.0 0.00 0.00 0.00 40 1019.0
20260502033304 11 247 0.0 0.0 0.00 0.00 0.00 40 1019.3
20260502032801 11 271 0.0 0.0 0.00 0.00 0.00 39 1018.8
20260502032257 11 262 0.0 0.0 0.00 0.00 0.00 40 1018.8
20260502031755 11 249 0.0 0.0 0.00 0.00 0.00 39 1018.9
20260502031253 11 227 0.0 0.0 0.00 0.00 0.00 40 1018.8
20260502030751 11 271 0.0 0.0 0.00 0.00 0.00 40 1018.8
20260502030248 11 241 0.0 0.0 0.00 0.00 0.00 39 1018.4
20260502025746 12 264 0.0 0.0 0.00 0.00 0.00 38 1018.7
20260502025244 12 263 0.0 0.0 0.00 0.00 0.00 37 1018.4
20260502024741 12 270 0.0 0.0 0.00 0.00 0.00 36 1018.3
20260502024239 13 285 0.0 0.0 0.00 0.00 0.00 35 1018.3
20260502023737 13 272 0.0 0.0 0.00 0.00 0.00 35 1018.3
20260502023234 13 303 0.0 0.0 0.00 0.00 0.00 35 1018.0
20260502022732 13 273 0.0 0.0 0.00 0.00 0.00 35 1018.1
20260502022228 13 281 0.0 0.0 0.00 0.00 0.00 34 1018.2
20260502021725 15 265 0.0 3.2 0.00 0.00 0.00 33 1018.1
20260502021222 15 355 1.6 3.2 0.00 0.00 0.00 30 1018.0
20260502020719 15 346 1.6 3.2 0.00 0.00 0.00 30 1018.2
20260502020216 15 22 1.6 4.8 0.00 0.00 0.00 29 1018.0
20260502015714 15 308 3.2 3.2 0.00 0.00 0.00 30 1017.9
20260502015210 15 0 0.0 3.2 0.00 0.00 0.00 29 1018.0
20260502014708 15 12 4.8 8.0 0.00 0.00 0.00 29 1018.0
20260502014205 15 8 4.8 4.8 0.00 0.00 0.00 29 1018.1
20260502013701 16 351 4.8 8.0 0.00 0.00 0.00 28 1018.0
20260502013156 16 28 0.0 3.2 0.00 0.00 0.00 28 1018.1
20260502012654 16 329 1.6 3.2 0.00 0.00 0.00 28 1017.9
20260502012152 16 352 1.6 4.8 0.00 0.00 0.00 28 1017.8
20260502011648 16 13 3.2 4.8 0.00 0.00 0.00 28 1018.0
20260502011144 16 348 3.2 4.8 0.00 0.00 0.00 28 1017.9
20260502010642 16 0 4.8 4.8 0.00 0.00 0.00 28 1017.9
20260502010138 16 10 3.2 4.8 0.00 0.00 0.00 28 1017.9
20260502005635 16 1 0.0 4.8 0.00 0.00 0.00 28 1017.5
20260502005133 16 17 4.8 4.8 0.00 0.00 0.00 27 1017.9
20260502004629 16 6 1.6 4.8 0.00 0.00 0.00 28 1017.9
20260502004126 16 22 0.0 3.2 0.00 0.00 0.00 28 1018.0
20260502003624 16 69 1.6 4.8 0.00 0.00 0.00 27 1017.8
20260502003120 16 12 3.2 8.0 0.00 0.00 0.00 27 1017.9
20260502002616 17 15 1.6 4.8 0.00 0.00 0.00 26 1017.8
20260502002114 17 14 3.2 4.8 0.00 0.00 0.00 26 1017.9
20260502001612 16 0 1.6 4.8 0.00 0.00 0.00 25 1018.0
20260502001109 16 32 1.6 3.2 0.00 0.00 0.00 26 1017.9
20260502000607 17 40 1.6 4.8 0.00 0.00 0.00 25 1018.0
20260502000104 17 1 3.2 4.8 0.00 0.00 0.00 26 1017.9
20260501235559 16 33 0.0 4.8 0.00 0.00 0.00 26 1018.1
20260501235056 16 30 0.0 4.8 0.00 0.00 0.00 26 1018.0
20260501234551 16 55 0.0 3.2 0.00 0.00 0.00 27 1017.9
20260501234049 16 353 3.2 3.2 0.00 0.00 0.00 26 1017.9
20260501233547 16 84 0.0 4.8 0.00 0.00 0.00 26 1017.6
20260501233044 17 26 1.6 4.8 0.00 0.00 0.00 26 1017.9
20260501232540 16 49 0.0 4.8 0.00 0.00 0.00 26 1017.9
20260501232038 17 31 3.2 8.0 0.00 0.00 0.00 25 1017.9
20260501231535 17 64 0.0 3.2 0.00 0.00 0.00 25 1017.9
20260501231033 17 4 4.8 8.0 0.00 0.00 0.00 24 1017.8
20260501230532 17 19 4.8 4.8 0.00 0.00 0.00 24 1018.0
20260501230029 17 55 1.6 3.2 0.00 0.00 0.00 24 1018.0
20260501225527 17 23 3.2 4.8 0.00 0.00 0.00 24 1018.1
20260501225022 17 51 1.6 3.2 0.00 0.00 0.00 24 1017.8
20260501224520 17 78 0.0 3.2 0.00 0.00 0.00 24 1017.8
20260501224017 17 89 0.0 1.6 0.00 0.00 0.00 25 1018.1
20260501223514 16 55 0.0 3.2 0.00 0.00 0.00 26 1018.1
20260501223010 17 80 3.2 4.8 0.00 0.00 0.00 25 1018.3
20260501222506 17 50 1.6 3.2 0.00 0.00 0.00 24 1018.1
20260501222003 17 45 3.2 4.8 0.00 0.00 0.00 25 1018.1
20260501221459 17 337 1.6 4.8 0.00 0.00 0.00 24 1018.1
20260501220958 17 60 0.0 3.2 0.00 0.00 0.00 24 1018.3
20260501220455 17 65 0.0 3.2 0.00 0.00 0.00 24 1018.0
20260501215951 18 287 0.0 0.0 0.00 0.00 0.00 23 1018.4
20260501215448 17 300 0.0 0.0 0.00 0.00 0.00 25 1018.3
20260501214943 18 25 0.0 0.0 0.00 0.00 0.00 25 1018.6
20260501214439 17 45 0.0 0.0 0.00 0.00 0.00 24 1018.6
20260501213934 17 240 0.0 1.6 0.00 0.00 0.00 24 1018.6
20260501213432 17 273 0.0 0.0 0.00 0.00 0.00 25 1018.7
20260501212927 18 11 1.6 4.8 0.00 0.00 0.00 23 1018.4
20260501212424 17 335 3.2 4.8 0.00 0.00 0.00 25 1018.6
20260501211921 18 26 0.0 1.6 0.00 0.00 0.00 24 1018.8
20260501211419 18 217 0.0 0.0 0.00 0.00 0.00 22 1018.8
20260501210916 18 83 0.0 0.0 0.00 0.00 0.00 23 1018.9
20260501210412 17 265 0.0 0.0 0.00 0.00 0.00 25 1018.9
20260501205909 16 332 0.0 0.0 0.00 0.00 0.00 25 1018.9
20260501205406 17 68 0.0 0.0 0.00 0.00 0.00 25 1019.0
20260501204903 16 29 0.0 3.2 0.00 0.00 0.00 26 1019.0
20260501204359 17 62 0.0 3.2 0.00 0.00 0.00 26 1019.0
20260501203855 18 87 0.0 0.0 0.00 0.00 0.00 24 1018.9
20260501203352 17 29 0.0 0.0 0.00 0.00 0.00 24 1018.7
20260501202849 17 109 0.0 0.0 0.00 0.00 0.00 25 1019.0
20260501202346 17 126 0.0 0.0 0.00 0.00 0.00 25 1019.3
20260501201843 16 328 0.0 3.2 0.00 0.00 0.00 25 1019.3
20260501201340 16 13 4.8 4.8 0.00 0.00 0.00 25 1019.0
20260501200836 16 41 1.6 3.2 0.00 0.00 0.00 26 1018.9
20260501200333 16 320 1.6 3.2 0.00 0.00 0.00 26 1019.0
20260501195832 17 3 0.0 0.0 0.00 0.00 0.00 24 1019.1
20260501195327 17 146 0.0 0.0 0.00 0.00 0.00 24 1018.9
20260501194823 16 326 0.0 0.0 0.00 0.00 0.00 26 1019.1
20260501194319 15 291 0.0 1.6 0.00 0.00 0.00 27 1019.4
20260501193816 16 58 0.0 3.2 0.00 0.00 0.00 25 1019.1
20260501193314 15 25 1.6 1.6 0.00 0.00 0.00 26 1019.5
20260501192806 16 348 0.0 3.2 0.00 0.00 0.00 24 1019.3
20260501192306 15 109 0.0 0.0 0.00 0.00 0.00 25 1019.1
20260501191759 15 53 0.0 1.6 0.00 0.00 0.00 28 1019.6
20260501191256 15 44 3.2 3.2 0.00 0.00 0.00 26 1019.6
20260501190753 15 345 4.8 4.8 0.00 0.00 0.00 25 1019.5
20260501190249 15 80 0.0 3.2 0.00 0.00 0.00 27 1019.6
20260501185745 15 162 0.0 0.0 0.00 0.00 0.00 24 1019.7
20260501185241 15 17 1.6 1.6 0.00 0.00 0.00 27 1019.7
20260501184737 15 48 0.0 3.2 0.00 0.00 0.00 26 1019.8
20260501184232 15 27 1.6 4.8 0.00 0.00 0.00 27 1019.7
20260501183728 15 36 0.0 3.2 0.00 0.00 0.00 25 1020.2
20260501183226 14 89 0.0 4.8 0.00 0.00 0.00 27 1019.7
20260501182722 15 70 0.0 0.0 0.00 0.00 0.00 28 1019.8
20260501182219 15 39 4.8 4.8 0.00 0.00 0.00 27 1019.8
20260501181716 15 25 0.0 1.6 0.00 0.00 0.00 26 1020.3
20260501181214 15 27 0.0 3.2 0.00 0.00 0.00 27 1020.1
20260501180712 14 311 4.8 4.8 0.00 0.00 0.00 27 1020.0
20260501180207 14 345 4.8 4.8 0.00 0.00 0.00 29 1020.1
20260501175704 14 3 1.6 4.8 0.00 0.00 0.00 28 1020.3
20260501175201 13 55 1.6 3.2 0.00 0.00 0.00 28 1020.3
20260501174657 13 52 1.6 3.2 0.00 0.00 0.00 30 1020.1
20260501174155 14 64 1.6 4.8 0.00 0.00 0.00 30 1020.4
20260501173653 14 47 3.2 4.8 0.00 0.00 0.00 29 1020.3
20260501173149 13 342 3.2 4.8 0.00 0.00 0.00 29 1020.1
20260501172645 13 333 0.0 3.2 0.00 0.00 0.00 29 1020.3
20260501172140 13 22 0.0 3.2 0.00 0.00 0.00 31 1020.3
20260501171637 13 0 1.6 4.8 0.00 0.00 0.00 31 1020.4
20260501171134 13 325 3.2 3.2 0.00 0.00 0.00 31 1020.5
20260501170631 13 35 0.0 0.0 0.00 0.00 0.00 34 1020.3
20260501170127 12 18 0.0 0.0 0.00 0.00 0.00 35 1020.5
20260501165625 12 294 0.0 3.2 0.00 0.00 0.00 35 1020.2
20260501165122 13 11 0.0 3.2 0.00 0.00 0.00 32 1020.4
20260501164620 13 80 0.0 0.0 0.00 0.00 0.00 33 1020.5
20260501164117 14 273 0.0 0.0 0.00 0.00 0.00 33 1020.4
20260501163613 13 77 0.0 0.0 0.00 0.00 0.00 32 1020.4
20260501163110 13 62 0.0 0.0 0.00 0.00 0.00 34 1020.5
20260501162606 12 52 0.0 0.0 0.00 0.00 0.00 36 1020.4
20260501162103 13 97 0.0 0.0 0.00 0.00 0.00 34 1020.3
20260501161601 12 132 0.0 0.0 0.00 0.00 0.00 36 1020.3
20260501161057 13 132 0.0 0.0 0.00 0.00 0.00 35 1020.4
20260501160554 12 33 0.0 0.0 0.00 0.00 0.00 35 1020.1
20260501160051 12 118 0.0 0.0 0.00 0.00 0.00 35 1020.2
20260501155547 12 130 0.0 0.0 0.00 0.00 0.00 35 1020.3
20260501155045 12 77 0.0 0.0 0.00 0.00 0.00 36 1020.1
20260501154542 12 131 0.0 0.0 0.00 0.00 0.00 35 1020.2
20260501154039 12 107 0.0 1.6 0.00 0.00 0.00 36 1020.0
20260501153536 12 56 0.0 1.6 0.00 0.00 0.00 37 1020.0
20260501153033 12 102 0.0 0.0 0.00 0.00 0.00 37 1020.0
20260501152529 12 77 0.0 0.0 0.00 0.00 0.00 36 1020.1
20260501152027 12 86 0.0 0.0 0.00 0.00 0.00 36 1020.1
20260501151524 11 73 0.0 0.0 0.00 0.00 0.00 38 1020.0
20260501151020 11 100 0.0 0.0 0.00 0.00 0.00 37 1020.0
20260501150515 12 110 0.0 0.0 0.00 0.00 0.00 35 1020.1